When you browse on this site, cookies collect data to enhance your experience and personalize the content and advertising you see.
Visit our Privacy Policy to learn more. By continuing to use the site, you agree to this use of cookies and data.
  • In Lithuania
  • List of Countries
  • For 7 days
  • Water Temperature
  • Satellite Maps
  • Weather Map
  • Weather Widgets
  • user-avatar
    Login

    Hourly Weather Chichester

    Today, 20 April, Saturday

    Time Temperature Precipitation Wind Pressure Humidity
    00:00 +10°C° 0 mm 4 mps 771 mmHg 76%
    01:00 +10°C° 0 mm 4 mps 771 mmHg 77%
    02:00 +10°C° 0 mm 4 mps 771 mmHg 77%
    03:00 +9°C° 0 mm 5 mps 771 mmHg 78%
    04:00 +9°C° 0 mm 5 mps 771 mmHg 78%
    05:00 +9°C° 0 mm 5 mps 771 mmHg 79%
    06:00 +9°C° 0 mm 5 mps 771 mmHg 79%
    07:00 +12°C° 0 mm 5 mps 771 mmHg 77%
    08:00 +14°C° 0 mm 5 mps 771 mmHg 75%
    09:00 +16°C° 0 mm 5 mps 771 mmHg 73%
    10:00 +17°C° 0 mm 5 mps 771 mmHg 70%
    11:00 +19°C° 0 mm 4 mps 771 mmHg 66%
    12:00 +21°C° 0 mm 4 mps 770 mmHg 62%
    13:00 +21°C° 0 mm 4 mps 770 mmHg 61%
    14:00 +21°C° 0 mm 3 mps 770 mmHg 60%
    15:00 +22°C° 0 mm 3 mps 769 mmHg 59%
    16:00 +21°C° 0 mm 3 mps 769 mmHg 64%
    17:00 +20°C° 0 mm 3 mps 769 mmHg 69%
    18:00 +19°C° 0 mm 3 mps 769 mmHg 75%
    19:00 +17°C° 0 mm 3 mps 769 mmHg 76%
    20:00 +14°C° 0 mm 3 mps 769 mmHg 78%
    21:00 +12°C° 0 mm 4 mps 769 mmHg 79%
    22:00 +12°C° 0 mm 4 mps 769 mmHg 77%
    23:00 +11°C° 0 mm 4 mps 769 mmHg 75%

    Tomorrow, 21 April, Sunday

    Time Temperature Precipitation Wind Pressure Humidity
    00:00 +10°C° 0 mm 4 mps 768 mmHg 73%
    01:00 +10°C° 0 mm 3 mps 768 mmHg 74%
    02:00 +10°C° 0 mm 3 mps 767 mmHg 74%
    03:00 +10°C° 0 mm 3 mps 767 mmHg 75%
    04:00 +10°C° 0 mm 3 mps 767 mmHg 77%
    05:00 +10°C° 0 mm 3 mps 766 mmHg 79%
    06:00 +10°C° 0 mm 3 mps 766 mmHg 81%
    07:00 +12°C° 0 mm 3 mps 766 mmHg 78%
    08:00 +14°C° 0 mm 3 mps 766 mmHg 74%
    09:00 +17°C° 0 mm 2 mps 765 mmHg 70%
    10:00 +18°C° 0 mm 2 mps 765 mmHg 67%
    11:00 +19°C° 0 mm 2 mps 764 mmHg 64%
    12:00 +20°C° 0 mm 2 mps 764 mmHg 61%
    13:00 +20°C° 0 mm 2 mps 763 mmHg 62%
    14:00 +20°C° 0 mm 3 mps 763 mmHg 63%
    15:00 +20°C° 0 mm 3 mps 762 mmHg 63%
    16:00 +19°C° 0 mm 3 mps 762 mmHg 67%
    17:00 +18°C° 0 mm 2 mps 761 mmHg 71%
    18:00 +17°C° 0 mm 2 mps 761 mmHg 75%
    19:00 +16°C° 0 mm 2 mps 761 mmHg 78%
    20:00 +14°C° 0 mm 2 mps 761 mmHg 80%
    21:00 +13°C° 0 mm 2 mps 760 mmHg 83%
    22:00 +12°C° 0 mm 2 mps 760 mmHg 83%
    23:00 +10°C° 0 mm 3 mps 759 mmHg 82%

    Day after tomorrow, 22 April, Monday

    Time Temperature Precipitation Wind Pressure Humidity
    00:00 +10°C° 0 mm 3 mps 759 mmHg 82%
    01:00 +10°C° 0 mm 3 mps 758 mmHg 83%
    02:00 +10°C° 0 mm 3 mps 757 mmHg 84%
    03:00 +9°C° 0 mm 3 mps 757 mmHg 85%
    04:00 +10°C° 0 mm 3 mps 756 mmHg 85%
    05:00 +10°C° 0 mm 3 mps 755 mmHg 85%
    06:00 +10°C° 0 mm 4 mps 755 mmHg 86%
    07:00 +12°C° 0 mm 4 mps 754 mmHg 82%
    08:00 +14°C° 0 mm 4 mps 754 mmHg 78%
    09:00 +17°C° 0 mm 4 mps 754 mmHg 75%
    10:00 +17°C° 0 mm 5 mps 753 mmHg 70%
    11:00 +17°C° 0 mm 5 mps 752 mmHg 66%
    12:00 +19°C° 0 mm 5 mps 752 mmHg 62%
    13:00 +19°C° 0 mm 6 mps 751 mmHg 61%
    14:00 +19°C° 0 mm 6 mps 750 mmHg 61%
    15:00 +19°C° 0 mm 6 mps 750 mmHg 60%
    16:00 +19°C° 0 mm 6 mps 749 mmHg 65%
    17:00 +17°C° 0 mm 5 mps 749 mmHg 70%
    18:00 +16°C° 0 mm 5 mps 749 mmHg 75%
    19:00 +15°C° 0 mm 5 mps 749 mmHg 78%
    20:00 +14°C° 0 mm 5 mps 749 mmHg 80%
    21:00 +13°C° 0 mm 5 mps 749 mmHg 82%
    22:00 +12°C° 0 mm 4 mps 748 mmHg 83%
    23:00 +12°C° 0 mm 4 mps 748 mmHg 84%

    23 April, Tuesday

    Time Temperature Precipitation Wind Pressure Humidity
    00:00 +12°C° 0 mm 4 mps 748 mmHg 85%
    01:00 +12°C° 0 mm 4 mps 747 mmHg 86%
    02:00 +12°C° 0 mm 4 mps 747 mmHg 87%
    03:00 +12°C° 0 mm 4 mps 747 mmHg 88%
    04:00 +12°C° 0 mm 4 mps 747 mmHg 88%
    05:00 +11°C° 0 mm 4 mps 747 mmHg 87%
    06:00 +11°C° 0 mm 4 mps 747 mmHg 86%
    07:00 +13°C° 0 mm 5 mps 747 mmHg 82%
    08:00 +14°C° 0 mm 6 mps 747 mmHg 78%
    09:00 +15°C° 0 mm 6 mps 747 mmHg 74%
    10:00 +16°C° 0 mm 6 mps 747 mmHg 71%
    11:00 +16°C° 0 mm 6 mps 747 mmHg 69%
    12:00 +17°C° 0 mm 6 mps 747 mmHg 66%
    13:00 +17°C° 0 mm 6 mps 747 mmHg 66%
    14:00 +17°C° 0 mm 6 mps 746 mmHg 66%
    15:00 +17°C° 0 mm 6 mps 746 mmHg 66%
    16:00 +16°C° 0 mm 6 mps 746 mmHg 70%
    17:00 +15°C° 0 mm 5 mps 746 mmHg 74%
    18:00 +14°C° 0 mm 5 mps 746 mmHg 77%
    19:00 +13°C° 0 mm 5 mps 746 mmHg 80%
    20:00 +12°C° 0 mm 5 mps 746 mmHg 83%
    21:00 +10°C° 0 mm 5 mps 747 mmHg 86%
    22:00 +10°C° 0 mm 5 mps 746 mmHg 86%
    23:00 +10°C° 0 mm 5 mps 746 mmHg 86%

    24 April, Wednesday

    Time Temperature Precipitation Wind Pressure Humidity
    00:00 +10°C° 0 mm 5 mps 746 mmHg 86%
    01:00 +10°C° 0.2 mm 5 mps 746 mmHg 88%
    02:00 +11°C° 0.2 mm 4 mps 746 mmHg 91%
    03:00 +11°C° 0.2 mm 4 mps 746 mmHg 94%
    04:00 +10°C° 0 mm 5 mps 746 mmHg 95%
    05:00 +10°C° 0 mm 5 mps 746 mmHg 96%
    06:00 +10°C° 0 mm 6 mps 747 mmHg 97%
    07:00 +11°C° 0 mm 6 mps 747 mmHg 95%
    08:00 +11°C° 0 mm 6 mps 748 mmHg 93%
    09:00 +11°C° 0 mm 6 mps 748 mmHg 91%
    10:00 +12°C° 0 mm 7 mps 749 mmHg 86%
    11:00 +12°C° 0 mm 7 mps 749 mmHg 82%
    12:00 +13°C° 0 mm 8 mps 750 mmHg 78%
    13:00 +12°C° 0.1 mm 7 mps 750 mmHg 76%
    14:00 +13°C° 0.1 mm 6 mps 750 mmHg 75%
    15:00 +13°C° 0.1 mm 6 mps 750 mmHg 73%
    16:00 +13°C° 0 mm 5 mps 750 mmHg 76%
    17:00 +12°C° 0 mm 5 mps 750 mmHg 79%
    18:00 +12°C° 0 mm 5 mps 750 mmHg 81%
    19:00 +10°C° 0.3 mm 5 mps 750 mmHg 83%
    20:00 +10°C° 0.3 mm 5 mps 750 mmHg 84%
    21:00 +10°C° 0.3 mm 6 mps 751 mmHg 85%
    22:00 +10°C° 0 mm 6 mps 751 mmHg 85%
    23:00 +9°C° 0 mm 7 mps 750 mmHg 84%

    25 April, Thursday

    Time Temperature Precipitation Wind Pressure Humidity
    00:00 +9°C° 0 mm 7 mps 750 mmHg 84%
    01:00 +9°C° 0 mm 7 mps 750 mmHg 85%
    02:00 +9°C° 0 mm 7 mps 750 mmHg 86%
    03:00 +9°C° 0 mm 7 mps 749 mmHg 87%
    04:00 +9°C° 0 mm 8 mps 749 mmHg 86%
    05:00 +9°C° 0 mm 8 mps 749 mmHg 85%
    06:00 +8°C° 0 mm 9 mps 749 mmHg 85%
    07:00 +10°C° 0 mm 9 mps 749 mmHg 83%
    08:00 +9°C° 0 mm 10 mps 749 mmHg 80%
    09:00 +11°C° 0 mm 10 mps 750 mmHg 78%
    10:00 +11°C° 0.1 mm 9 mps 750 mmHg 75%
    11:00 +12°C° 0.1 mm 8 mps 751 mmHg 71%
    12:00 +12°C° 0.1 mm 7 mps 752 mmHg 68%
    13:00 +12°C° 0 mm 7 mps 752 mmHg 67%
    14:00 +12°C° 0 mm 7 mps 753 mmHg 66%
    15:00 +12°C° 0 mm 7 mps 753 mmHg 65%
    16:00 +11°C° 0 mm 7 mps 754 mmHg 68%
    17:00 +11°C° 0 mm 7 mps 755 mmHg 70%
    18:00 +10°C° 0 mm 7 mps 755 mmHg 72%
    19:00 +9°C° 0 mm 6 mps 756 mmHg 74%
    20:00 +8°C° 0 mm 6 mps 757 mmHg 76%
    21:00 +7°C° 0 mm 6 mps 758 mmHg 77%
    22:00 +6°C° 0 mm 7 mps 759 mmHg 77%
    23:00 +6°C° 0 mm 7 mps 759 mmHg 76%
    Show more